ATLAS 5 CENTAUR DEB, 44643

Orbit data source: Space-Track

ATLAS 5 CENTAUR DEB, 44643 is space debris in HEO originally from a launch on Wed, 17 Oct 2018 UTC launched from the Air Force Eastern Test Range (AFETR). Debris objects in space refer to the collection of defunct objects orbiting the Earth. Examples of debris include non-operational satellites, rocket bodies, and fragments generated from explosions, collisions, or faulty payload assembly.

Loading next visibility...
Identifier
44643, 2018-079D
Orbit
HEO
Country
Flag of USUS
Related business
Flag of USUnited Launch Alliance/Lockheed Martin (US)
Manufacturer
ULA Decatur
Mission
Spacecraft
Bus & Motor
Unknown
Mass
Unknown
Launch date (UTC)
2018-10-17 (8 years ago)
Launch vehicle
Unknown
Launch site
Air Force Eastern Test Range (AFETR)
Object type
Payload
Rocket body
Debris
Shape & HBR
Unknown shape, 1.1 m
Radar Cross Section
Medium (>0.1 m² and <1 m²)

Expand to show TLE details & history
Last TLE update: 5 days ago

TLE from 5 days ago
0 ATLAS 5 CENTAUR DEB
1 44643U 18079D   26249.93606897 -.00000212  00000-0  00000+0 0  9992
2 44643  14.0123  16.4754 4745070 343.8026   5.0302  1.81957723 48739
Epoch: 2026-09-06T22:27Z
TLE epoch observation values (Epoch: 2026-09-06T22:27:56.359Z)
Latitude
-0.00003°
Longitude
53.48882°
Altitude
8,687.186 km
Speed
6.233 km/s
True Right ascension
01h 05m 59s
True Declination
0° 00' 00"
Sunlit
Object was in daylight at epoch
Visualization orbit readout
Latitude
Unknown
Longitude
Unknown
Altitude
Unknown
Speed
Unknown
Apparent Right ascension
Unknown
Apparent Declination
Unknown
Sunlit
N/A
Visualization observer readout
Local Sidereal Time
05:41:57
Azimuth
Unknown
Elevation
Unknown
Doppler factor
Unknown
Orbital elements
Apogee altitude
35,414.566 km
Perigee altitude
8,516.179 km
Semi-major axis
28,343.509 km
Eccentricity
0.47451
Inclination
14.0123°
RAAN
16.4754°
Arg. of periapsis
343.8026°
True anomaly
15.90224°
Mean anomaly
5.0302°
Eccentric anomaly
9.53269°
Mean motion
0.45484 °/min
Orbital period
791.48 mins
BSTAR
0
Loading maneuver chart data...
Computing Atmospheric mass density...

Documentation

Showing up to 5 results
|